| time (UTC) | temp C | wind direction | speed KPH | gust KPH | rain 1hr cm | rain 24hr cm | rain mn cm | humidity % | barometer mb |
| 20260506160904 | 16 | 332 | 9.7 | 11.3 | 0.00 | 0.00 | 0.00 | 79 | 1024.3 |
| 20260506160007 | 17 | 340 | 8.0 | 12.9 | 0.00 | 0.00 | 0.00 | 79 | 1024.2 |
| 20260506155404 | 16 | 333 | 11.3 | 12.9 | 0.00 | 0.00 | 0.00 | 80 | 1024.1 |
| 20260506154507 | 15 | 332 | 11.3 | 12.9 | 0.00 | 0.00 | 0.00 | 82 | 1023.9 |
| 20260506153603 | 16 | 334 | 8.0 | 9.7 | 0.00 | 0.00 | 0.00 | 81 | 1024.3 |
| 20260506152703 | 15 | 325 | 9.7 | 12.9 | 0.00 | 0.00 | 0.00 | 84 | 1024.1 |
| 20260506151805 | 15 | 343 | 8.0 | 12.9 | 0.00 | 0.00 | 0.00 | 84 | 1024.1 |
| 20260506151114 | 15 | 339 | 8.0 | 11.3 | 0.00 | 0.00 | 0.00 | 85 | 1024.2 |
| 20260506150005 | 15 | 333 | 8.0 | 12.9 | 0.00 | 0.00 | 0.00 | 86 | 1024.0 |
| 20260506145404 | 15 | 335 | 8.0 | 11.3 | 0.00 | 0.00 | 0.00 | 88 | 1024.5 |
| 20260506144505 | 14 | 349 | 6.4 | 11.3 | 0.00 | 0.00 | 0.00 | 89 | 1024.2 |
| 20260506143603 | 14 | 347 | 6.4 | 11.3 | 0.00 | 0.00 | 0.00 | 91 | 1024.1 |
| 20260506142703 | 13 | 347 | 4.8 | 6.4 | 0.00 | 0.00 | 0.00 | 92 | 1024.1 |
| 20260506141804 | 13 | 347 | 4.8 | 4.8 | 0.00 | 0.00 | 0.00 | 93 | 1024.1 |
| 20260506140904 | 13 | 351 | 3.2 | 4.8 | 0.00 | 0.00 | 0.00 | 93 | 1023.9 |
| 20260506140007 | 13 | 357 | 1.6 | 1.6 | 0.00 | 0.00 | 0.00 | 94 | 1023.6 |
| 20260506135404 | 12 | 350 | 1.6 | 1.6 | 0.00 | 0.00 | 0.00 | 96 | 1023.8 |
| 20260506134505 | 12 | 342 | 0.0 | 1.6 | 0.00 | 0.00 | 0.00 | 97 | 1023.7 |
| 20260506133604 | 12 | 340 | 0.0 | 1.6 | 0.00 | 0.00 | 0.00 | 98 | 1023.5 |
| 20260506132704 | 11 | 0 | 0.0 | 0.0 | 0.00 | 0.00 | 0.00 | 98 | 1023.4 |
| 20260506132014 | 11 | 331 | 0.0 | 1.6 | 0.00 | 0.00 | 0.00 | 98 | 1023.5 |
| 20260506131115 | 12 | 324 | 1.6 | 3.2 | 0.00 | 0.00 | 0.00 | 98 | 1023.1 |
| 20260506130004 | 12 | 326 | 3.2 | 3.2 | 0.00 | 0.00 | 0.00 | 97 | 1023.4 |
| 20260506125405 | 12 | 328 | 1.6 | 3.2 | 0.00 | 0.00 | 0.00 | 97 | 1023.2 |
| 20260506124713 | 12 | 331 | 1.6 | 3.2 | 0.00 | 0.00 | 0.00 | 98 | 1023.2 |
| 20260506123603 | 12 | 331 | 1.6 | 3.2 | 0.00 | 0.00 | 0.00 | 97 | 1023.3 |
| 20260506122703 | 12 | 321 | 3.2 | 4.8 | 0.00 | 0.00 | 0.00 | 97 | 1023.1 |
| 20260506121804 | 12 | 329 | 3.2 | 4.8 | 0.00 | 0.00 | 0.00 | 97 | 1023.3 |
| 20260506120905 | 12 | 321 | 3.2 | 4.8 | 0.00 | 0.00 | 0.00 | 97 | 1023.3 |
| 20260506120004 | 11 | 329 | 3.2 | 4.8 | 0.00 | 0.00 | 0.00 | 97 | 1023.0 |
| 20260506115403 | 11 | 327 | 4.8 | 9.7 | 0.00 | 0.00 | 0.00 | 97 | 1022.9 |
| 20260506114713 | 11 | 325 | 4.8 | 9.7 | 0.00 | 0.00 | 0.00 | 97 | 1023.0 |
| 20260506113603 | 11 | 334 | 3.2 | 4.8 | 0.00 | 0.00 | 0.00 | 98 | 1022.8 |
| 20260506112703 | 11 | 342 | 0.0 | 1.6 | 0.00 | 0.00 | 0.00 | 98 | 1023.0 |
| 20260506111803 | 11 | 350 | 0.0 | 1.6 | 0.00 | 0.00 | 0.00 | 98 | 1023.2 |
| 20260506110904 | 11 | 337 | 1.6 | 3.2 | 0.00 | 0.00 | 0.00 | 98 | 1023.0 |
| 20260506110214 | 11 | 337 | 0.0 | 3.2 | 0.00 | 0.00 | 0.00 | 98 | 1022.8 |
| 20260506105405 | 11 | 357 | 0.0 | 3.2 | 0.00 | 0.00 | 0.00 | 98 | 1022.9 |
| 20260506104504 | 11 | 338 | 1.6 | 3.2 | 0.00 | 0.00 | 0.00 | 98 | 1022.8 |
| 20260506103604 | 11 | 0 | 0.0 | 0.0 | 0.00 | 0.00 | 0.00 | 98 | 1023.1 |
| 20260506102703 | 11 | 331 | 1.6 | 1.6 | 0.00 | 0.00 | 0.00 | 97 | 1022.7 |
| 20260506101804 | 11 | 337 | 1.6 | 3.2 | 0.00 | 0.00 | 0.00 | 96 | 1022.7 |
| 20260506101114 | 11 | 335 | 3.2 | 4.8 | 0.00 | 0.00 | 0.00 | 96 | 1022.6 |
| 20260506100004 | 11 | 339 | 6.4 | 9.7 | 0.00 | 0.00 | 0.00 | 96 | 1022.3 |
| 20260506095403 | 11 | 337 | 6.4 | 6.4 | 0.00 | 0.00 | 0.00 | 96 | 1022.4 |
| 20260506094504 | 11 | 330 | 6.4 | 9.7 | 0.00 | 0.00 | 0.00 | 96 | 1022.3 |
| 20260506093815 | 11 | 330 | 3.2 | 4.8 | 0.00 | 0.00 | 0.00 | 96 | 1022.2 |
| 20260506092704 | 11 | 336 | 6.4 | 9.7 | 0.00 | 0.00 | 0.00 | 96 | 1022.2 |
| 20260506091804 | 11 | 329 | 1.6 | 4.8 | 0.00 | 0.00 | 0.00 | 97 | 1022.0 |
| 20260506090903 | 11 | 0 | 0.0 | 0.0 | 0.00 | 0.00 | 0.00 | 97 | 1022.2 |
| 20260506090004 | 11 | 0 | 0.0 | 0.0 | 0.00 | 0.00 | 0.00 | 97 | 1022.1 |
| 20260506085403 | 11 | 0 | 0.0 | 0.0 | 0.00 | 0.00 | 0.00 | 96 | 1022.4 |
| 20260506084507 | 11 | 322 | 1.6 | 4.8 | 0.00 | 0.00 | 0.00 | 96 | 1022.3 |
| 20260506083603 | 11 | 326 | 1.6 | 3.2 | 0.00 | 0.03 | 0.00 | 96 | 1022.2 |
| 20260506082703 | 11 | 331 | 1.6 | 1.6 | 0.00 | 0.03 | 0.00 | 97 | 1022.3 |
| 20260506081804 | 11 | 329 | 0.0 | 1.6 | 0.00 | 0.03 | 0.00 | 97 | 1022.6 |
| 20260506081113 | 11 | 0 | 0.0 | 0.0 | 0.00 | 0.03 | 0.00 | 97 | 1023.0 |
| 20260506072704 | 12 | 323 | 4.8 | 4.8 | 0.00 | 0.10 | 0.00 | 93 | 1022.5 |
| 20260506071803 | 12 | 321 | 4.8 | 4.8 | 0.00 | 0.13 | 0.00 | 93 | 1022.2 |
| 20260506070903 | 12 | 334 | 3.2 | 4.8 | 0.00 | 0.13 | 0.00 | 93 | 1022.1 |
| 20260506070115 | 12 | 333 | 1.6 | 4.8 | 0.00 | 0.13 | 0.00 | 93 | 1022.1 |
| 20260506061803 | 12 | 329 | 4.8 | 6.4 | 0.00 | 0.13 | 0.13 | 91 | 1021.5 |
| 20260506060906 | 12 | 333 | 3.2 | 4.8 | 0.00 | 0.13 | 0.13 | 91 | 1021.5 |
| 20260506050907 | 13 | 0 | 0.0 | 0.0 | 0.00 | 0.13 | 0.13 | 91 | 1020.9 |
| 20260506044503 | 14 | 344 | 0.0 | 1.6 | 0.00 | 0.13 | 0.13 | 89 | 1020.7 |
| 20260506043815 | 14 | 328 | 1.6 | 1.6 | 0.00 | 0.13 | 0.13 | 88 | 1020.7 |
| 20260506042704 | 14 | 339 | 0.0 | 1.6 | 0.00 | 0.13 | 0.13 | 88 | 1020.4 |
| 20260506042014 | 15 | 340 | 1.6 | 3.2 | 0.00 | 0.13 | 0.13 | 87 | 1020.5 |
| 20260506040903 | 15 | 335 | 3.2 | 3.2 | 0.00 | 0.13 | 0.13 | 87 | 1020.0 |
| 20260506040006 | 15 | 334 | 1.6 | 3.2 | 0.00 | 0.13 | 0.13 | 87 | 1020.1 |
| 20260506035403 | 15 | 336 | 1.6 | 1.6 | 0.00 | 0.13 | 0.13 | 87 | 1020.1 |
| 20260506034505 | 15 | 329 | 1.6 | 4.8 | 0.00 | 0.13 | 0.13 | 86 | 1020.0 |
| 20260506033604 | 15 | 326 | 4.8 | 4.8 | 0.00 | 0.13 | 0.13 | 86 | 1019.9 |
| 20260506032914 | 15 | 330 | 3.2 | 4.8 | 0.00 | 0.13 | 0.13 | 86 | 1019.8 |
| 20260506032015 | 15 | 331 | 3.2 | 4.8 | 0.00 | 0.13 | 0.13 | 85 | 1019.6 |
| 20260506030909 | 15 | 334 | 1.6 | 3.2 | 0.00 | 0.13 | 0.13 | 85 | 1019.5 |
| 20260506030007 | 16 | 333 | 3.2 | 3.2 | 0.00 | 0.13 | 0.13 | 84 | 1019.5 |
| 20260506025404 | 16 | 337 | 3.2 | 4.8 | 0.00 | 0.13 | 0.13 | 83 | 1019.7 |
| 20260506024715 | 16 | 339 | 4.8 | 4.8 | 0.00 | 0.13 | 0.13 | 82 | 1019.6 |
| 20260506023814 | 16 | 327 | 3.2 | 3.2 | 0.00 | 0.13 | 0.13 | 80 | 1019.4 |
| 20260506022705 | 17 | 328 | 4.8 | 4.8 | 0.00 | 0.13 | 0.13 | 79 | 1019.5 |
| 20260506021804 | 17 | 326 | 4.8 | 4.8 | 0.00 | 0.13 | 0.13 | 78 | 1019.1 |
| 20260506020907 | 17 | 312 | 4.8 | 6.4 | 0.00 | 0.13 | 0.13 | 77 | 1019.2 |
| 20260506020003 | 17 | 292 | 6.4 | 9.7 | 0.00 | 0.13 | 0.13 | 76 | 1019.1 |
| 20260506015404 | 17 | 271 | 8.0 | 11.3 | 0.00 | 0.13 | 0.13 | 77 | 1019.0 |
| 20260506014503 | 17 | 243 | 8.0 | 11.3 | 0.00 | 0.13 | 0.13 | 77 | 1019.1 |
| 20260506013612 | 17 | 302 | 6.4 | 6.4 | 0.00 | 0.13 | 0.13 | 76 | 1019.1 |
| 20260506012704 | 17 | 294 | 8.0 | 11.3 | 0.00 | 0.13 | 0.13 | 76 | 1019.1 |
| 20260506011803 | 17 | 245 | 8.0 | 11.3 | 0.00 | 0.13 | 0.13 | 77 | 1019.0 |
| 20260506010905 | 18 | 283 | 6.4 | 9.7 | 0.00 | 0.13 | 0.13 | 75 | 1019.3 |
| 20260506010007 | 18 | 274 | 6.4 | 9.7 | 0.00 | 0.13 | 0.13 | 73 | 1019.3 |
| 20260506005408 | 18 | 269 | 6.4 | 9.7 | 0.00 | 0.13 | 0.13 | 74 | 1019.2 |
| 20260506004509 | 18 | 275 | 4.8 | 6.4 | 0.00 | 0.13 | 0.13 | 73 | 1019.4 |
| 20260506003604 | 18 | 296 | 6.4 | 6.4 | 0.00 | 0.13 | 0.13 | 73 | 1019.4 |
| 20260506002912 | 18 | 302 | 3.2 | 4.8 | 0.00 | 0.13 | 0.13 | 75 | 1019.4 |
| 20260506002014 | 17 | 316 | 4.8 | 4.8 | 0.00 | 0.13 | 0.13 | 76 | 1019.1 |
| 20260506000904 | 17 | 272 | 4.8 | 6.4 | 0.00 | 0.13 | 0.13 | 74 | 1019.1 |
| 20260506000215 | 17 | 288 | 4.8 | 9.7 | 0.00 | 0.13 | 0.13 | 74 | 1019.1 |
| 20260505235404 | 17 | 271 | 6.4 | 9.7 | 0.00 | 0.13 | 0.13 | 76 | 1019.1 |
| 20260505234714 | 17 | 320 | 4.8 | 4.8 | 0.00 | 0.13 | 0.13 | 75 | 1019.0 |
| 20260505233604 | 17 | 320 | 6.4 | 9.7 | 0.00 | 0.13 | 0.13 | 75 | 1019.0 |
| 20260505232704 | 18 | 298 | 8.0 | 11.3 | 0.00 | 0.13 | 0.13 | 73 | 1019.0 |
| 20260505231804 | 18 | 320 | 6.4 | 6.4 | 0.00 | 0.13 | 0.13 | 75 | 1019.1 |
| 20260505231115 | 17 | 293 | 8.0 | 11.3 | 0.00 | 0.13 | 0.13 | 76 | 1019.2 |
| 20260505230006 | 17 | 290 | 6.4 | 9.7 | 0.00 | 0.13 | 0.13 | 77 | 1019.0 |
| 20260505225403 | 16 | 311 | 8.0 | 11.3 | 0.00 | 0.13 | 0.13 | 79 | 1019.1 |
| 20260505224504 | 17 | 288 | 8.0 | 11.3 | 0.00 | 0.13 | 0.13 | 78 | 1019.3 |
| 20260505223603 | 17 | 302 | 8.0 | 11.3 | 0.00 | 0.13 | 0.13 | 77 | 1019.2 |
| 20260505222704 | 17 | 305 | 8.0 | 11.3 | 0.00 | 0.13 | 0.13 | 77 | 1019.3 |
| 20260505221803 | 17 | 295 | 9.7 | 12.9 | 0.00 | 0.13 | 0.13 | 76 | 1019.5 |
| 20260505220904 | 17 | 313 | 9.7 | 12.9 | 0.00 | 0.13 | 0.13 | 77 | 1019.4 |
| 20260505220005 | 17 | 316 | 11.3 | 16.1 | 0.00 | 0.13 | 0.13 | 78 | 1019.5 |
| 20260505215404 | 16 | 321 | 9.7 | 16.1 | 0.00 | 0.13 | 0.13 | 79 | 1019.6 |
| 20260505214715 | 17 | 308 | 6.4 | 6.4 | 0.00 | 0.13 | 0.13 | 76 | 1019.4 |
| 20260505213604 | 17 | 320 | 8.0 | 11.3 | 0.00 | 0.13 | 0.13 | 76 | 1019.7 |
| 20260505212703 | 16 | 313 | 8.0 | 11.3 | 0.00 | 0.13 | 0.13 | 80 | 1019.5 |
| 20260505211804 | 16 | 309 | 9.7 | 11.3 | 0.00 | 0.13 | 0.13 | 80 | 1019.6 |
| 20260505210906 | 17 | 305 | 8.0 | 11.3 | 0.00 | 0.13 | 0.13 | 79 | 1019.5 |
| 20260505210007 | 16 | 293 | 11.3 | 14.5 | 0.00 | 0.13 | 0.13 | 79 | 1019.5 |
| 20260505205404 | 17 | 261 | 9.7 | 14.5 | 0.00 | 0.13 | 0.13 | 76 | 1019.4 |
| 20260505204504 | 16 | 273 | 8.0 | 11.3 | 0.00 | 0.13 | 0.13 | 76 | 1019.6 |
| 20260505203603 | 16 | 306 | 8.0 | 11.3 | 0.00 | 0.13 | 0.13 | 80 | 1019.4 |
| 20260505202709 | 15 | 310 | 6.4 | 11.3 | 0.00 | 0.13 | 0.13 | 81 | 1020.0 |
| 20260505201804 | 16 | 326 | 8.0 | 11.3 | 0.00 | 0.13 | 0.13 | 79 | 1020.0 |
| 20260505201114 | 16 | 330 | 8.0 | 9.7 | 0.00 | 0.13 | 0.13 | 79 | 1020.0 |
| 20260505200005 | 16 | 306 | 6.4 | 9.7 | 0.00 | 0.13 | 0.13 | 79 | 1019.7 |
| 20260505195404 | 15 | 313 | 8.0 | 11.3 | 0.00 | 0.13 | 0.13 | 79 | 1019.9 |
| 20260505194505 | 15 | 320 | 8.0 | 11.3 | 0.00 | 0.13 | 0.13 | 79 | 1020.1 |
| 20260505193603 | 15 | 329 | 6.4 | 9.7 | 0.00 | 0.13 | 0.13 | 80 | 1020.0 |
| 20260505192705 | 16 | 293 | 6.4 | 6.4 | 0.00 | 0.13 | 0.13 | 78 | 1019.9 |
| 20260505191804 | 15 | 325 | 8.0 | 11.3 | 0.00 | 0.13 | 0.13 | 79 | 1019.9 |
| 20260505190904 | 15 | 316 | 8.0 | 12.9 | 0.00 | 0.13 | 0.13 | 79 | 1020.0 |
| 20260505190006 | 15 | 293 | 8.0 | 12.9 | 0.00 | 0.13 | 0.13 | 80 | 1020.0 |
| 20260505185403 | 15 | 263 | 8.0 | 11.3 | 0.00 | 0.13 | 0.13 | 80 | 1020.1 |
| 20260505184505 | 15 | 281 | 8.0 | 9.7 | 0.00 | 0.13 | 0.13 | 79 | 1019.8 |
| 20260505183604 | 16 | 323 | 9.7 | 11.3 | 0.00 | 0.13 | 0.13 | 78 | 1019.6 |
| 20260505182705 | 16 | 276 | 9.7 | 16.1 | 0.00 | 0.13 | 0.13 | 76 | 1019.6 |
| 20260505181806 | 16 | 309 | 9.7 | 16.1 | 0.00 | 0.13 | 0.13 | 78 | 1019.6 |
| 20260505180904 | 16 | 323 | 8.0 | 12.9 | 0.00 | 0.13 | 0.13 | 79 | 1019.7 |
| 20260505180008 | 16 | 310 | 9.7 | 14.5 | 0.00 | 0.13 | 0.13 | 80 | 1019.5 |
| 20260505175404 | 15 | 313 | 9.7 | 14.5 | 0.00 | 0.13 | 0.13 | 81 | 1019.5 |
| 20260505174713 | 15 | 320 | 8.0 | 9.7 | 0.00 | 0.13 | 0.13 | 81 | 1019.6 |
| 20260505173604 | 15 | 329 | 6.4 | 9.7 | 0.00 | 0.13 | 0.13 | 85 | 1019.5 |
| 20260505172706 | 14 | 302 | 6.4 | 6.4 | 0.00 | 0.13 | 0.13 | 86 | 1019.2 |
| 20260505172015 | 14 | 326 | 4.8 | 6.4 | 0.00 | 0.13 | 0.13 | 86 | 1019.4 |
| 20260505170904 | 13 | 330 | 4.8 | 4.8 | 0.00 | 0.13 | 0.13 | 89 | 1019.2 |
| 20260505170013 | 13 | 317 | 3.2 | 4.8 | 0.00 | 0.13 | 0.13 | 90 | 1019.2 |
| 20260505165405 | 13 | 331 | 3.2 | 6.4 | 0.00 | 0.13 | 0.13 | 90 | 1019.3 |
| 20260505164505 | 12 | 323 | 6.4 | 6.4 | 0.00 | 0.13 | 0.13 | 93 | 1019.3 |
| 20260505163603 | 12 | 322 | 4.8 | 9.7 | 0.00 | 0.13 | 0.13 | 93 | 1019.3 |
| 20260505162703 | 12 | 327 | 6.4 | 9.7 | 0.00 | 0.13 | 0.13 | 93 | 1019.1 |
| 20260505162015 | 12 | 309 | 3.2 | 4.8 | 0.00 | 0.13 | 0.13 | 94 | 1019.3 |